{"data":{"norad_id":37740,"intl_designator":"2011-033B","name":"GLOBALSTAR M088","alt_names":[],"object_type":"PAYLOAD","status":"ACTIVE","operator":null,"country":"GLOB","launch_date":"2011-07-13","launch_site_code":"TYMSC","launch_vehicle":null,"mission":null,"orbit_class":"UNKNOWN","rcs_meters":5.0376,"size_class":null,"mass_kg":null,"dimensions":null,"purposes":["comms"],"wikipedia_slug":null,"has_3d_model":false,"image_url":null,"decayed_at":null,"tle_current":{"epoch":"2026-09-20T04:48:43.727040Z","epoch_age_seconds":40305,"freshness":"FRESH","line1":"1 37740U 11033B   26263.20050610 -.00000091  00000+0  69103-4 0  9995","line2":"2 37740  52.0244 349.8277 0000545 102.6477 274.8658 12.62270312700497","mean_motion":12.62270312,"eccentricity":5.45e-5,"inclination_deg":52.0244,"raan_deg":349.8277,"arg_perigee_deg":102.6477,"mean_anomaly_deg":274.8658,"bstar":6.9103e-5,"rev_number":70049,"period_min":114.08016066847,"perigee_km":1413.162988921,"apogee_km":1414.0122869065,"semimajor_km":7791.7246379137,"source":"CELESTRAK","updated_at":"2026-09-20T09:00:45.038325Z"}}}